Regional Weather Roundup
Issued by NWS

Home | Current Version | Previous Version | Text Only | Print | Product List | Glossary On
Versions: 1 2 3 4 5 6 7 8 9 10 11 12 13 14 15 16 17 18 19 20 21 22 23 24 25 26 27 28 29 30 31 32 33 34 35 36 37 38 39 40 41 42 43 44 45 46 47 48 49 50
000
ASHW40 PHFO 202312
RWRHI

WEATHER ROUNDUP FOR HAWAII
NATIONAL WEATHER SERVICE HONOLULU HI
100 PM HST FRI OCT 20 2017

THIS IS AN AUTOMATED REPORT THAT HAS NOT BEEN QUALITY CONTROLLED.

NOTE..."FAIR" INDICATES FEW OR NO CLOUDS BELOW 12,000 FEET WITH NO
SIGNIFICANT WEATHER AND/OR OBSTRUCTIONS TO VISIBILITY.

* - THESE SITES REPORT LIMITED FIELDS
# - BUOY DATA PROVIDED BY PACIFIC ISLANDS OCEAN OBSERVING SYSTEM.

HIZ001>004-210000-
KAUAI-NIIHAU-

CITY           SKY/WX    TMP DP  RH WIND       PRES   REMARKS
LIHUE APT      SUNNY     85  68  56 NE18      30.08F
PORT ALLEN*      N/A     86 N/A N/A NE25G35     N/A
POIPU*           N/A     84 N/A N/A NE12G23     N/A
PRINCEVILLE*     N/A     79 N/A N/A E10G18      N/A
KOKOLE POINT*  NOT AVBL
MOLOAA DAIRY*    N/A     84  70  61 E3G12       N/A
WAIMEA HTS*    NOT AVBL
PUU OPAE*      NOT AVBL
PUU LUA*       NOT AVBL
MAKAHA RIDGE*  NOT AVBL
$$

HIZ005>011-210000-
OAHU-

CITY           SKY/WX    TMP DP  RH WIND       PRES   REMARKS
HONOLULU       MOSUNNY   85  65  51 NE24G36   30.00F
KALAELOA       MOSUNNY   86  65  49 E10G22    30.02F
KANEOHE MCB    PTSUNNY   84  69  60 NE16G24   30.01F
WHEELER FIELD  FAIR      81  66  61 NE21G28   30.03F
BELLOWS*       NOT AVBL
KAHUKU*        NOT AVBL
WHEELER*       NOT AVBL
WAIANAE HARBOR NOT AVBL
DILLINGHAM*      N/A     72  55  56 SW10G21     N/A
KAHUKU TRN*      N/A     70  55  60 W12G26      N/A
KAWAILOA*        N/A     75  64  69 E14G26      N/A
KII*             N/A     82  68  61 NE18G25     N/A
MAKUA RANGE*     N/A     84  63  48 SW16G30     N/A
OAHU FOREST NW NOT AVBL
SCHOFIELD BRK*   N/A     70  55  60 MISG        N/A
SCHOFIELD S*   NOT AVBL
WAIANAE VLY*   NOT AVBL
KUAOKALA*      NOT AVBL
HONOULIUULI*   NOT AVBL
MOKUOLOE IS*   NOT AVBL
PALEHUA*       NOT AVBL
WAIAWA PHB*    NOT AVBL
$$

HIZ012>013-210000-
MOLOKAI-

CITY           SKY/WX    TMP DP  RH WIND       PRES   REMARKS
MOLOKAI AIRPT  PTSUNNY   81  68  64 NE18G30   30.02F
KALAUPAPA      NOT AVBL
MAKAPULAPAI*   NOT AVBL
MOLOKAI 1*     NOT AVBL
PUU ALII*      NOT AVBL
$$

HIZ016-210000-
KAHOOLAWE-

CITY           SKY/WX    TMP DP  RH WIND       PRES   REMARKS
KAHOOLAWE*     NOT AVBL
HAKIOAWA*      NOT AVBL
HONOKANAIA*      N/A     86  67  52 NE21G37   29.93F
KANELOA*         N/A     82  68  61 E24G41    30.05F
KEALIALALO*    NOT AVBL
LUA MAKIKA*    NOT AVBL
$$

HIZ014>015-210000-
LANAI-

CITY           SKY/WX    TMP DP  RH WIND       PRES   REMARKS
LANAI CITY     FAIR      79  67  66 NE28G35   30.02F
LANAI 1*       NOT AVBL
$$

HIZ017>028-210000-
MAUI-

CITY           SKY/WX    TMP DP  RH WIND       PRES   REMARKS
KAHULUI        MOSUNNY   87  70  56 NE23G32   30.00F HX  92
KAPALUA-W MAUI MOSUNNY   82  66  57 NE23G35   29.99F
HANA AIRPORT   NOT AVBL
HANA*            N/A     81 N/A N/A NE12G17     N/A
HALEAKALA SUMM NOT AVBL
MAALAEA BAY*   NOT AVBL
HALEAKALA*     NOT AVBL
KAUPO GAP*     NOT AVBL
KULA 1*          N/A     65  55  69 NW6G12      N/A
$$

HIZ023>026-210000-
BIG ISLAND OF HAWAII COAST AND LOWER SLOPES-

CITY           SKY/WX    TMP DP  RH WIND       PRES   REMARKS
KAILUA KONA    MOSUNNY   86  65  49 S14       29.91F
HILO           CLOUDY    76  72  87 NW8       30.02F
HONOKAA*         N/A     77 N/A N/A VRB1        N/A
KAWAIHAE MWT*    N/A     91 N/A N/A S9G23       N/A
KAWAIHAE*      NOT AVBL
SOUTH POINT*     N/A     81 N/A N/A N26G39      N/A
UPOLU AIRPORT* NOT AVBL
KAMUELA*       NOT AVBL
HAKALAU*         N/A     64  47  53 NE6G14      N/A
KALOKO-HONOKO* NOT AVBL
PALI 2*          N/A     77  59  53 S26G46      N/A
KEALAKOMO*       N/A     86  64  48 N26G38      N/A
KAUPULEHU*     NOT AVBL
KAPAPALA*        N/A     87  50  27 NE14G26     N/A
LOWER KAHUKU*  NOT AVBL
PUHE CS*       NOT AVBL
PUHO CS*       NOT AVBL
PTA KEAMUKU*     N/A     79  50  36 NE35G49     N/A
WAIKOLOA*      NOT AVBL
$$

HIZ027>028-210000-
BIG ISLAND OF HAWAII INTERIOR AND SUMMMITS-

CITY           SKY/WX    TMP DP  RH WIND       PRES   REMARKS
BRADSHAW FIELD SUNNY     72  32  23 S14G31    30.23F
MK VISITOR CEN NOT AVBL
MAUNA KEA*     NOT AVBL
MAUNA LOA*     NOT AVBL
MAUNA LOA 1*   NOT AVBL
PTA KIPUKA*      N/A    N/A N/A N/A W23G35      N/A
PTA RANGE 17*    N/A    N/A N/A N/A W18G35      N/A
PTA WEST*        N/A     77  54  44 W9G22       N/A
NENE CABIN*    NOT AVBL
AHUMOA*        NOT AVBL
PTA PORTABLE*  NOT AVBL
PUU MALI*        N/A    N/A N/A N/A E24G40      N/A
$$

HIC003-210000-
NORTHWEST ISLANDS-

CITY           SKY/WX    TMP DP  RH WIND       PRES   REMARKS
MIDWAY ISLAND  MOSUNNY   82  73  74 E9        30.19F
MIDWAY NOS*    NOT AVBL
FRENCH FRIGATE NOT AVBL
$$

PHZ110>124-180-210000-
BUOY REPORTS

STATION/POSITION TIME  TEMP    WIND        PRES    WAVE   SWELL
                       AIR SEA DIR/SP/G            HT/PER HT/DIR
                 (UTC) (F)     (DEG/KT/KT) (MB)    (FT/S) (FT/D)
BUOY 51001       2250   78 80   60/ 17/ 21 1020.4F  10/ 9   5/ 60
BUOY 51101       2250   78 80   60/ 19/ 25 1020.6F  10/10   7/ 70
BUOY 51100       NOT AVBL
BUOY 51002       2250   80 80   70/ 21/ 25 1013.1F  11/ 8   7/ 60
BUOY 51003       2250   81 81   60/ 17/ 19 1015.0F  10/ 9   7/ 80
BUOY 51004       2250   79 80   60/ 17/ 21 1012.7F   9/ 9   7/ 20
WAIMEA BAY#      2202      78                N/A    10/ 9   3/340
MOKAPU POINT#    2204      80                N/A    10/10   3/350
LANAI#           NOT AVBL
BARBERS PT 2#    NOT AVBL
PAUWELA#         NOT AVBL
HILO#            2227      80                N/A    10/ 9   5/ 20
KANEOHE BAY#     NOT AVBL
KANEOHE BAY 2#   NOT AVBL
HANALEI#         2252      80                N/A    10/ 9   3/ 60
KAHULUI HARBOR   2242      78              1016.2F
HONOLULU HARBOR  2242      80              1016.9F
PEARL HARBOR#    2230      80                N/A     3/ 6
KILO NALU        NOT AVBL
HILO HARBOR      2242      80              1016.4F
MOKUOLOE         2236   80 79   60/ 16/ 21 1017.3F
NAWILIWILI       2248                      1018.1F
WHOTS BUOY       NOT AVBL
BUOY 51028       NOT AVBL
$$

......................KEY........................................
  SKY/WX - SKY CONDITIONS/PRESENT WEATHER
  TMP    - TEMPERATURE IN FAHRENHEIT
  DWPT   - DEWPOINT IN FAHRENHEIT
  RH     - RELATIVE HUMIDITY IN PERCENT
  WIND   - DIRECTION AND SPEED /MPH FOR ISLANDS...KTS FOR BUOYS/
  PRES   - MEAN SEA LEVEL PRESSURE IN INCHES OF HG
  VSB    - VISIBILITY IN MILES
  HX     - HEAT INDEX
  WCI    - WIND CHILL INDEX
  VRB    - VARIABLE WIND DIRECTION
  N/A    - NOT AVAILABLE




USA.gov is the U.S. government's official web portal to all federal, state and local government web resources and services.